Location: Bernac-Debat
(43.1677°N, 0.1074°E)
Time: 01:53:04
(UTC+00:00)

Daily predictions for brighter satellites

Satellite Brightness Start Highest point End
(mag) Time Altitude Azimuth Time Altitude Azimuth Time Altitude Azimuth
USA 234 4.2 03:29:55 10° NE 03:33:57 41° ENE 03:33:57 41° ENE
CZ-4C R/B 3.8 03:54:01 38° NNE 03:55:28 42° NE 04:03:02 10° ESE
Lacrosse 5 3.3 04:14:15 32° SE 04:14:15 32° SE 04:16:57 10° SE
Cosmos 2297 Rocket 3.8 04:24:20 23° NNE 04:24:20 23° NNE 04:26:26 10° NNE
Cosmos 2227 Rocket 3.7 04:27:52 26° N 04:27:52 26° N 04:30:18 10° NNE
Cosmos 1513 Rocket 4.5 04:32:37 10° S 04:39:02 86° E 04:45:30 10° N
Nadezhda 4 Rocket 4.4 04:35:51 10° N 04:42:02 59° E 04:48:05 10° SSE
COBE Rocket 4.2 04:44:14 10° S 04:48:02 54° S 04:48:02 54° S
COSMO-SKYMED 1 3.3 04:48:56 10° SSE 04:53:08 51° ENE 04:55:02 29° NNE
Okean O Rocket 3.8 04:52:09 10° NE 04:55:52 26° E 04:59:34 10° SSE
Cosmos 1607 4.2 04:58:44 45° NW 04:58:44 45° NW 05:04:12 10° NNE
SL-16 R/B 2.1 04:59:54 61° W 05:00:24 63° WSW 05:06:00 10° S
Cosmos 2242 Rocket 4.0 04:58:13 27° N 05:00:36 64° E 05:05:05 10° SSE
GEOS 3 Rocket 3.5 04:56:15 10° SSE 05:01:16 62° SW 05:01:33 60° WSW
Cosmos 1470 Rocket 3.4 04:57:22 10° S 05:01:50 86° W 05:06:21 10° N
Cosmos 724 4.4 04:55:55 10° SSW 05:01:57 77° ESE 05:07:55 10° NE
Cosmos 1371 Rocket 3.9 04:57:56 10° SSW 05:03:12 90° W 05:08:27 10° NNE
Cosmos 2084 Rocket 4.5 05:03:00 34° N 05:04:15 42° NE 05:08:27 10° ESE
Cosmos 614 Rocket 3.8 05:04:28 49° NNW 05:05:53 85° WSW 05:10:59 10° SSE
Cosmos 1862 Rocket 3.6 05:06:35 62° SW 05:06:35 62° SW 05:10:32 10° S
Meteor 1-27 Rocket 3.7 05:03:30 27° NNW 05:06:52 71° W 05:12:43 10° S
Cosmos 407 Rocket 3.4 05:06:12 39° NNW 05:08:17 85° WSW 05:13:38 10° SSE
Cosmos 2082 4.0 05:10:06 44° NW 05:10:06 44° NW 05:15:04 10° NNE
FALCON 9 R/B 4.2 05:07:47 23° SW 05:12:55 55° SSE 05:39:05 10° E
Cosmos 1140 Rocket 3.6 05:11:47 24° NNW 05:15:00 77° ENE 05:20:13 10° SSE
Cosmos 2034 Rocket 3.9 05:10:50 10° SSW 05:17:04 68° W 05:23:26 10° N
SKYMED 3 4.4 05:12:54 10° SSE 05:17:14 87° WSW 05:19:27 29° NNW
ATLAS 5 CENTAUR R/B 3.2 05:19:24 22° NNW 05:19:24 22° NNW 05:22:06 10° NNE
USA 234 3.7 05:13:09 10° NE 05:19:13 43° NNW 05:21:19 33° WNW
Cosmos 1023 Rocket 4.4 05:23:55 23° NNW 05:27:16 82° WSW 05:32:30 10° SSE
Meteor 2-11 Rocket 4.4 05:21:38 10° SSW 05:27:35 56° WNW 05:33:37 10° N
BREEZE-M DEB (TANK) 3.6 05:23:22 17° WSW 05:31:40 71° NNW 05:35:14 10° ENE
STARLINK 1044 4.4 05:35:59 22° N 05:36:21 23° NNE 05:38:44 10° ENE
CZ-4B DEB 4.1 05:33:34 10° NNE 05:39:06 78° WNW 05:44:38 10° SSW
SKYMED 2 3.8 05:37:05 10° S 05:41:16 47° W 05:43:42 23° NW
Cosmos 1484 Rocket 3.2 05:37:46 10° N 05:41:27 38° WNW 05:45:05 10° SW
PSLV R/B 4.3 05:38:34 10° N 05:42:24 40° WNW 05:46:15 10° SW
Cosmos 1340 4.2 05:38:58 10° SSE 05:42:26 37° E 05:45:57 10° NNE
CZ-4C R/B 3.1 05:39:15 21° NW 05:44:24 58° WSW 05:52:30 10° SSE
Cosmos 1092 Rocket 3.9 05:39:49 10° NNW 05:45:59 71° W 05:52:03 10° S
Cosmos 1624 Rocket 4.3 05:42:41 10° SW 05:47:44 44° WNW 05:52:51 10° N
STARLINK 1056 4.5 05:47:16 21° NNW 05:48:41 30° NNE 05:51:43 10° E
STARLINK 1054 4.4 05:49:56 21° NNW 05:51:28 31° NNE 05:54:32 10° E
SJ-12 4.2 05:47:36 10° N 05:51:32 43° WNW 05:55:25 10° SW
Cosmos 2263 Rocket 2.2 05:46:57 10° SSW 05:52:33 83° ESE 05:58:09 10° NNE
Cosmos 2056 Rocket 3.8 05:47:58 10° SW 05:52:45 40° WNW 05:57:34 10° N
STARLINK 1062 4.4 05:52:24 20° NNW 05:54:03 32° NNE 05:57:09 10° E
Lacrosse 5 3.5 05:53:29 16° WSW 05:54:15 17° WSW 05:57:26 10° SSW
FALCON 9 DEB 3.5 05:53:58 26° N 05:54:32 30° NNE 05:56:39 10° E
STARLINK 1053 4.3 05:55:18 20° NNW 05:57:05 33° NNE 06:00:12 10° E
BREEZE-M DEB 4.3 05:54:11 19° WNW 05:58:13 43° SW 06:01:57 10° SE
Cosmos 2227 4.2 05:52:58 10° SW 05:58:41 67° WNW 06:04:28 10° NNE
Cosmos 676 Rocket 4.1 05:54:14 12° NNW 05:59:03 58° WSW 06:04:12 10° S
STARLINK 1061 4.3 05:57:38 19° NNW 05:59:32 34° NNE 06:02:40 10° E
SMAP 4.2 05:57:21 10° NNE 06:01:51 47° E 06:06:20 10° S
STARLINK 1067 4.2 06:00:18 18° NNW 06:02:19 35° NNE 06:05:29 10° E
Meteor 1-14 Rocket 4.3 05:58:49 10° S 06:04:44 85° WNW 06:10:45 10° N
STARLINK 1058 4.2 06:02:52 18° NNW 06:05:00 37° NNE 06:08:12 10° E
Radarsat Rocket 4.3 05:59:15 10° NNE 06:05:23 79° ESE 06:12:13 10° SSW
Cosmos 2297 Rocket 4.0 06:06:11 12° NW 06:06:11 12° NW 06:08:18 10° NNW
STARLINK 1043 4.1 06:05:30 17° NW 06:07:45 38° NNE 06:10:58 10° E
ALOS 2.7 06:04:38 10° N 06:09:00 39° WNW 06:13:19 10° SW
Timation 1 Rocket 4.3 06:03:53 10° SSW 06:09:51 89° W 06:15:52 10° NNE
Cosmos 2227 Rocket 3.9 06:09:44 12° NW 06:09:54 12° NW 06:12:14 10° NNW
STARLINK 1065 4.0 06:08:04 16° NW 06:10:25 40° NNE 06:13:40 10° E
Cosmos 1954 Rocket 4.3 06:05:35 10° NNW 06:10:38 48° WSW 06:15:42 10° S
Cosmos 1346 Rocket 2.8 06:07:20 10° S 06:11:10 81° E 06:15:03 10° NNE
Meteor 1-25 Rocket 4.3 06:06:28 10° SSW 06:11:53 52° WNW 06:17:24 10° N
Okean 1-7 3.4 06:07:47 10° NNW 06:11:58 44° W 06:16:08 10° SSW
STARLINK 1063 4.0 06:10:50 15° NW 06:13:18 41° NNE 06:16:34 10° E
CZ-4B R/B 3.3 06:08:11 10° N 06:13:40 60° WNW 06:19:12 10° SSW
Cosmos 1420 Rocket 4.1 06:09:32 10° SW 06:14:38 55° WNW 06:19:45 10° NNE
STARLINK 1064 3.9 06:13:21 15° NW 06:15:56 43° NNE 06:19:13 10° ESE
STARLINK 1041 3.8 06:15:59 14° NW 06:18:41 45° NNE 06:21:59 10° ESE
FALCON 9 DEB 2.5 06:17:13 18° NW 06:18:45 56° NNE 06:21:05 10° ESE
Cosmos 2221 Rocket 3.5 06:15:58 10° N 06:20:25 87° W 06:24:49 10° S
FENGYUN 3A 4.1 06:16:07 10° N 06:21:04 38° WNW 06:26:00 10° SW
STARLINK 1038 3.8 06:18:39 13° NW 06:21:29 47° NNE 06:24:47 10° ESE
CZ-4 R/B 4.3 06:18:48 10° NE 06:21:31 18° E 06:24:15 10° SE
PSLV R/B 3.2 06:19:58 12° WSW 06:22:08 46° S 06:24:30 10° E
STARLINK 1046 3.7 06:21:17 13° NW 06:24:14 49° NNE 06:27:33 10° ESE
FALCON 9 DEB 2.3 06:23:05 16° NW 06:24:51 67° NE 06:27:13 10° ESE
Cosmos 1741 Rocket 4.0 06:20:01 10° NNW 06:25:16 89° E 06:30:29 10° SSE
STARLINK 1039 3.6 06:23:57 12° NW 06:27:00 52° NNE 06:30:21 10° ESE
STARLINK 1045 3.6 06:24:41 12° NW 06:27:47 53° NNE 06:31:09 10° ESE
COSMO-SKYMED 1 4.2 06:27:04 10° SW 06:29:35 15° W 06:32:07 10° NW
Cosmos 1461 3.8 06:27:26 11° NW 06:31:06 33° WSW 06:35:03 10° S
Meteor 1-19 Rocket 4.2 06:26:43 10° NNW 06:32:08 62° W 06:37:37 10° S
Okean O Rocket 2.4 06:28:22 10° N 06:32:11 30° WNW 06:36:01 10° SW
Cosmos 1943 3.4 06:26:54 10° NW 06:32:20 52° WSW 06:37:46 10° S
H-2A R/B 2.6 06:28:38 10° N 06:32:21 75° WNW 06:36:06 10° SSW
STARLINK 1034 3.0 06:29:52 11° NW 06:32:38 60° NNE 06:35:32 10° ESE
STARLINK 1027 3.0 06:30:33 11° NW 06:33:18 61° NNE 06:36:12 10° ESE
STARLINK 1028 3.0 06:30:46 11° NW 06:33:32 62° NNE 06:36:26 10° ESE
STARLINK 1021 3.0 06:30:59 11° NW 06:33:46 62° NNE 06:36:40 10° ESE
STARLINK 1019 3.0 06:31:09 11° NW 06:33:59 63° NNE 06:36:54 10° ESE
STARLINK 1012 3.0 06:31:24 11° NW 06:34:12 63° NNE 06:37:06 10° ESE
STARLINK 1010 2.9 06:31:37 11° NW 06:34:25 63° NNE 06:37:19 10° ESE
STARLINK 1052 3.0 06:31:40 11° NW 06:34:30 63° NNE 06:37:25 10° ESE
STARLINK 1026 2.9 06:31:51 11° NW 06:34:40 63° NNE 06:37:34 10° ESE
STARLINK 1013 2.9 06:32:04 11° NW 06:34:54 64° NE 06:37:48 10° ESE
STARLINK 1009 2.9 06:32:16 11° NW 06:35:06 64° NNE 06:38:00 10° ESE
STARLINK 1015 2.9 06:32:29 11° NW 06:35:20 64° NNE 06:38:15 10° ESE
STARLINK 1016 2.9 06:32:42 10° NW 06:35:33 65° NNE 06:38:28 10° ESE
STARLINK 1008 2.9 06:32:56 10° NW 06:35:48 65° NNE 06:38:42 10° ESE
OE (NEXTSAT) 4.4 06:32:28 11° WNW 06:35:53 90° W 06:39:25 10° ESE
STARLINK 1014 2.9 06:33:09 10° NW 06:36:01 65° NE 06:38:55 10° ESE
STARLINK 1017 2.9 06:33:12 10° NW 06:36:04 65° NNE 06:38:59 10° ESE
STARLINK 1025 2.9 06:33:22 10° NW 06:36:14 66° NNE 06:39:08 10° ESE
STARLINK 1023 2.9 06:33:49 10° NW 06:36:42 66° NNE 06:39:37 10° ESE
STARLINK 1007 2.9 06:33:59 10° NW 06:36:54 67° NNE 06:39:48 10° ESE
STARLINK 1048 2.9 06:34:14 10° NW 06:37:08 67° NNE 06:40:02 10° ESE
STARLINK 1049 2.9 06:34:26 10° NW 06:37:21 67° NNE 06:40:16 10° ESE
STARLINK 1040 2.8 06:34:33 10° NW 06:37:29 72° NE 06:40:24 10° ESE
STARLINK 1051 2.9 06:34:39 10° NW 06:37:35 68° NE 06:40:30 10° ESE
STARLINK 1037 2.9 06:34:53 10° NW 06:37:49 68° NNE 06:40:44 10° ESE
STARLINK 1059 2.9 06:35:06 10° NW 06:38:02 68° NNE 06:40:57 10° ESE
STARLINK 1057 2.9 06:35:20 10° NW 06:38:15 69° NE 06:41:10 10° ESE
Envisat 3.9 06:33:18 10° NNE 06:38:19 56° E 06:43:18 10° S
STARLINK 1068 2.8 06:35:47 10° NW 06:38:43 70° NE 06:41:37 10° ESE
STARLINK 1029 2.8 06:36:00 10° NW 06:38:56 70° NE 06:41:51 10° ESE
STARLINK 1060 2.8 06:36:14 10° NW 06:39:10 70° NE 06:42:04 10° ESE
STARLINK 1030 2.9 06:36:25 10° NW 06:39:23 71° NE 06:42:20 10° ESE
Cosmos 1452 Rocket 3.9 06:34:32 10° SW 06:39:32 43° WNW 06:44:35 10° N
STARLINK 1020 2.8 06:36:40 10° NW 06:39:36 71° NE 06:42:31 10° ESE
Helios 1A Rocket 3.9 06:36:32 10° NNW 06:39:49 24° WNW 06:43:04 10° WSW
STARLINK 1033 2.8 06:37:21 10° NW 06:40:16 72° NNE 06:43:12 10° ESE
STARLINK 1031 2.8 06:37:35 10° NW 06:40:31 73° NE 06:43:26 10° ESE
STARLINK 1024 2.8 06:37:47 10° NW 06:40:45 73° NE 06:43:42 10° ESE
STARLINK 1035 2.8 06:38:02 10° NW 06:40:58 73° NE 06:43:53 10° ESE
STARLINK 1032 2.8 06:38:16 10° NW 06:41:11 74° NNE 06:44:06 10° ESE
STARLINK 1011 2.8 06:38:26 10° NW 06:41:24 74° NE 06:44:21 10° ESE
STARLINK 1036 2.8 06:38:43 10° NW 06:41:39 75° NE 06:44:34 10° ESE
STARLINK 1047 2.8 06:39:10 10° NW 06:42:06 75° NE 06:45:01 10° ESE
Okean 1 4.4 06:40:33 10° NNW 06:43:51 26° W 06:47:09 10° SW
Okean-O 3.0 06:39:42 10° NNE 06:44:09 70° ESE 06:48:33 10° S
YAOGAN 6 3.8 06:41:51 10° NNE 06:45:27 49° E 06:49:02 10° S
Cosmos 1850 Rocket 4.2 06:42:04 10° NNW 06:47:19 56° WSW 06:52:31 10° S
SL-23 DEB 3.3 06:44:14 10° WSW 06:47:20 67° NNW 06:50:55 10° NE
Meteor 1-5 Rocket 4.5 06:41:34 10° S 06:47:33 88° E 06:53:29 10° N
Starlink Launch 2 leader 2.5 06:46:31 10° WNW 06:48:57 56° SW 06:51:22 10° SE
Meteor 2-4 Rocket 3.7 06:45:06 10° NNW 06:50:37 68° W 06:55:58 10° S
